EAG5502 SBGR-SBPS

Flight info

Callsign EAG5502
Flight time 1h 34m
Altitude 35000
Route VUMEV UZ14 NITLU UZ16 OSUNO
Aircraft B38M/M-SDE1FGHILORVWXY/HB1

Departure

Time 2026-04-22 00:12
Airport São Paulo/Guarulhos–Governor André Franco Montoro International Airport (SBGR)

Arrival

Time 2026-04-22 01:47
Airport Porto Seguro International Airport (SBPS)
Time Latitude Longitude Altitude Speed Heading
2026-04-21 23:50 -23.42749 -46.48073 2464 ft 0 kts 84°
2026-04-21 23:59 -23.42749 -46.48098 2464 ft 4 kts 100°
2026-04-21 23:59 -23.42739 -46.48124 2464 ft 4 kts 131°
2026-04-21 23:59 -23.42718 -46.48139 2464 ft 4 kts 165°
2026-04-22 00:00 -23.42702 -46.48143 2464 ft 1 kts 174°
2026-04-22 00:04 -23.42707 -46.48142 2464 ft 5 kts 174°
2026-04-22 00:04 -23.42793 -46.48135 2465 ft 18 kts 175°
2026-04-22 00:05 -23.42906 -46.48129 2465 ft 16 kts 193°
2026-04-22 00:05 -23.43005 -46.48137 2465 ft 15 kts 174°
2026-04-22 00:05 -23.43109 -46.48135 2465 ft 11 kts 211°
2026-04-22 00:05 -23.43137 -46.48206 2466 ft 11 kts 254°
2026-04-22 00:06 -23.43159 -46.48288 2464 ft 12 kts 253°
2026-04-22 00:06 -23.43185 -46.48375 2467 ft 10 kts 237°
2026-04-22 00:06 -23.43218 -46.48390 2466 ft 0 kts 174°
2026-04-22 00:07 -23.43252 -46.48381 2465 ft 9 kts 163°
2026-04-22 00:07 -23.43296 -46.48367 2465 ft 0 kts 163°
2026-04-22 00:10 -23.43301 -46.48365 2470 ft 2 kts 163°
2026-04-22 00:10 -23.43309 -46.48363 2466 ft 0 kts 163°
2026-04-22 00:11 -23.43321 -46.48359 2465 ft 8 kts 163°
2026-04-22 00:11 -23.43412 -46.48320 2463 ft 17 kts 130°
2026-04-22 00:11 -23.43402 -46.48240 2465 ft 13 kts 73°
2026-04-22 00:11 -23.43315 -46.47915 2465 ft 86 kts 73°
2026-04-22 00:12 -23.43071 -46.47011 2467 ft 160 kts 74°
2026-04-22 00:12 -23.42705 -46.45672 2751 ft 204 kts 75°
2026-04-22 00:12 -23.42290 -46.44144 3640 ft 217 kts 75°
2026-04-22 00:12 -23.41833 -46.42494 4424 ft 240 kts 73°
2026-04-22 00:13 -23.41298 -46.40716 5343 ft 254 kts 73°
2026-04-22 00:13 -23.40734 -46.38825 6300 ft 271 kts 73°
2026-04-22 00:13 -23.40140 -46.36822 7280 ft 282 kts 72°
2026-04-22 00:13 -23.39237 -46.34917 8466 ft 286 kts 58°
2026-04-22 00:14 -23.38153 -46.33079 9503 ft 294 kts 59°
2026-04-22 00:14 -23.37047 -46.31181 10424 ft 298 kts 59°
2026-04-22 00:14 -23.35912 -46.29226 11137 ft 315 kts 59°
2026-04-22 00:14 -23.34701 -46.27140 11689 ft 336 kts 59°
2026-04-22 00:15 -23.33416 -46.24922 12232 ft 357 kts 59°
2026-04-22 00:15 -23.32060 -46.22585 12850 ft 373 kts 59°
2026-04-22 00:15 -23.30655 -46.20162 13598 ft 384 kts 59°
2026-04-22 00:15 -23.29226 -46.17701 14525 ft 387 kts 59°
2026-04-22 00:16 -23.27781 -46.15212 15273 ft 394 kts 58°
2026-04-22 00:16 -23.26305 -46.12672 16039 ft 399 kts 58°
2026-04-22 00:16 -23.24813 -46.10104 16777 ft 405 kts 58°
2026-04-22 00:16 -23.23290 -46.07490 17513 ft 411 kts 57°
2026-04-22 00:17 -23.21426 -46.05121 18196 ft 416 kts 40°
2026-04-22 00:17 -23.18997 -46.03400 18844 ft 420 kts 24°
2026-04-22 00:17 -23.16279 -46.02206 19436 ft 424 kts 20°
2026-04-22 00:17 -23.13498 -46.01087 20019 ft 428 kts 16°
2026-04-22 00:18 -23.10573 -46.00493 20582 ft 429 kts
2026-04-22 00:18 -23.07590 -46.00081 21090 ft 434 kts
2026-04-22 00:18 -23.04582 -45.99686 21619 ft 437 kts
2026-04-22 00:18 -23.01549 -45.99305 22112 ft 441 kts
2026-04-22 00:19 -22.98530 -45.98934 22568 ft 444 kts
2026-04-22 00:19 -22.95452 -45.98558 23010 ft 447 kts
2026-04-22 00:19 -22.92350 -45.98180 23419 ft 450 kts
2026-04-22 00:19 -22.89287 -45.97430 23787 ft 455 kts 19°
2026-04-22 00:20 -22.86471 -45.95848 24124 ft 459 kts 32°
2026-04-22 00:20 -22.83792 -45.93938 24403 ft 462 kts 32°
2026-04-22 00:20 -22.81119 -45.91983 24679 ft 464 kts 33°
2026-04-22 00:20 -22.78449 -45.90003 24965 ft 467 kts 33°
2026-04-22 00:21 -22.75770 -45.87996 25245 ft 469 kts 33°
2026-04-22 00:21 -22.73086 -45.85979 25507 ft 472 kts 33°
2026-04-22 00:21 -22.70384 -45.83947 25779 ft 474 kts 33°
2026-04-22 00:21 -22.67665 -45.81903 26046 ft 476 kts 33°
2026-04-22 00:22 -22.64940 -45.79854 26309 ft 478 kts 33°
2026-04-22 00:22 -22.62204 -45.77800 26571 ft 480 kts 33°
2026-04-22 00:22 -22.59444 -45.75727 26839 ft 483 kts 33°
2026-04-22 00:22 -22.56680 -45.73653 27120 ft 485 kts 33°
2026-04-22 00:23 -22.53906 -45.71571 27397 ft 488 kts 33°
2026-04-22 00:23 -22.51112 -45.69477 27679 ft 490 kts 33°
2026-04-22 00:23 -22.48296 -45.67367 27932 ft 492 kts 33°
2026-04-22 00:23 -22.45514 -45.65283 28192 ft 494 kts 33°
2026-04-22 00:24 -22.42683 -45.63164 28449 ft 497 kts 33°
2026-04-22 00:24 -22.39837 -45.61034 28703 ft 499 kts 33°
2026-04-22 00:24 -22.36976 -45.58895 28964 ft 501 kts 33°
2026-04-22 00:24 -22.34103 -45.56748 29183 ft 504 kts 33°
2026-04-22 00:25 -22.31219 -45.54593 29427 ft 506 kts 33°
2026-04-22 00:25 -22.28312 -45.52423 29669 ft 508 kts 33°
2026-04-22 00:25 -22.25402 -45.50251 29905 ft 510 kts 33°
2026-04-22 00:25 -22.22483 -45.48073 30223 ft 510 kts 33°
2026-04-22 00:26 -22.19561 -45.45894 30517 ft 510 kts 33°
2026-04-22 00:26 -22.16648 -45.43724 30803 ft 509 kts 33°
2026-04-22 00:26 -22.13731 -45.41551 31088 ft 510 kts 33°
2026-04-22 00:26 -22.10813 -45.39379 31380 ft 510 kts 33°
2026-04-22 00:27 -22.07892 -45.37205 31679 ft 510 kts 33°
2026-04-22 00:27 -22.04977 -45.35032 31977 ft 510 kts 34°
2026-04-22 00:27 -22.02182 -45.32677 32278 ft 510 kts 37°
2026-04-22 00:27 -21.99402 -45.30297 32577 ft 510 kts 37°
2026-04-22 00:28 -21.96609 -45.27934 32878 ft 510 kts 37°
2026-04-22 00:28 -21.93811 -45.25577 33187 ft 510 kts 37°
2026-04-22 00:28 -21.91013 -45.23222 33490 ft 510 kts 37°
2026-04-22 00:28 -21.88218 -45.20873 33837 ft 509 kts 37°
2026-04-22 00:29 -21.86368 -45.19318 34058 ft 509 kts 37°
2026-04-22 00:29 -21.82677 -45.16217 34452 ft 508 kts 37°
2026-04-22 00:29 -21.79893 -45.13881 34731 ft 507 kts 37°
2026-04-22 00:29 -21.77112 -45.11547 35000 ft 508 kts 37°
2026-04-22 00:30 -21.74325 -45.09210 35256 ft 508 kts 37°
2026-04-22 00:30 -21.71536 -45.06873 35502 ft 509 kts 38°
2026-04-22 00:30 -21.69692 -45.05327 35790 ft 506 kts 38°
2026-04-22 00:30 -21.66925 -45.03010 36228 ft 502 kts 38°
2026-04-22 00:31 -21.64173 -45.00705 36570 ft 501 kts 38°
2026-04-22 00:31 -21.61430 -44.98411 36848 ft 500 kts 38°
2026-04-22 00:31 -21.58681 -44.96112 37086 ft 500 kts 38°
2026-04-22 00:32 -21.53189 -44.91524 37119 ft 499 kts 38°
2026-04-22 00:32 -21.47719 -44.86957 37122 ft 498 kts 38°
2026-04-22 00:33 -21.42243 -44.82389 37116 ft 499 kts 38°
2026-04-22 00:33 -21.36777 -44.77831 37125 ft 497 kts 38°
2026-04-22 00:34 -21.31321 -44.73274 37114 ft 497 kts 38°
2026-04-22 00:34 -21.25863 -44.68720 37117 ft 497 kts 38°
2026-04-22 00:35 -21.20410 -44.64174 37116 ft 496 kts 38°
2026-04-22 00:35 -21.14966 -44.59640 37123 ft 496 kts 38°
2026-04-22 00:36 -21.09517 -44.55105 37122 ft 496 kts 38°
2026-04-22 00:36 -21.04101 -44.50603 37120 ft 496 kts 38°
2026-04-22 00:37 -20.98617 -44.46049 37118 ft 496 kts 38°
2026-04-22 00:37 -20.93162 -44.41526 37130 ft 496 kts 38°
2026-04-22 00:38 -20.87702 -44.37004 37132 ft 496 kts 38°
2026-04-22 00:38 -20.82249 -44.32491 37122 ft 495 kts 38°
2026-04-22 00:39 -20.76803 -44.27989 37119 ft 495 kts 38°
2026-04-22 00:39 -20.71355 -44.23489 37122 ft 495 kts 38°
2026-04-22 00:40 -20.65942 -44.19021 37131 ft 495 kts 38°
2026-04-22 00:40 -20.60530 -44.14482 37125 ft 494 kts 39°
2026-04-22 00:41 -20.55126 -44.09940 37122 ft 494 kts 39°
2026-04-22 00:41 -20.50308 -44.04818 37110 ft 487 kts 61°
2026-04-22 00:42 -20.46909 -43.98545 37113 ft 489 kts 63°
2026-04-22 00:42 -20.43591 -43.92208 37127 ft 489 kts 63°
2026-04-22 00:43 -20.40303 -43.85859 37129 ft 489 kts 63°
2026-04-22 00:43 -20.37016 -43.79512 37132 ft 490 kts 63°
2026-04-22 00:44 -20.33720 -43.73157 37123 ft 489 kts 63°
2026-04-22 00:44 -20.30427 -43.66814 37134 ft 489 kts 63°
2026-04-22 00:45 -20.27134 -43.60477 37135 ft 489 kts 63°
2026-04-22 00:45 -20.23834 -43.54134 37128 ft 490 kts 63°
2026-04-22 00:46 -20.20532 -43.47795 37122 ft 490 kts 63°
2026-04-22 00:46 -20.17233 -43.41469 37117 ft 489 kts 63°
2026-04-22 00:47 -20.13932 -43.35144 37116 ft 489 kts 63°
2026-04-22 00:47 -20.10693 -43.28790 37104 ft 488 kts 65°
2026-04-22 00:48 -20.07614 -43.22353 37106 ft 488 kts 65°
2026-04-22 00:48 -20.04515 -43.15930 37104 ft 488 kts 65°
2026-04-22 00:49 -20.01414 -43.09512 37096 ft 487 kts 65°
2026-04-22 00:49 -19.98334 -43.03145 37104 ft 487 kts 65°
2026-04-22 00:50 -19.94955 -42.96904 37075 ft 490 kts 51°
2026-04-22 00:50 -19.90525 -42.91399 37078 ft 491 kts 51°
2026-04-22 00:51 -19.86080 -42.85878 37091 ft 492 kts 51°
2026-04-22 00:51 -19.81622 -42.80378 37098 ft 491 kts 50°
2026-04-22 00:52 -19.77162 -42.74879 37086 ft 491 kts 50°
2026-04-22 00:52 -19.72699 -42.69383 37083 ft 491 kts 50°
2026-04-22 00:53 -19.68237 -42.63902 37079 ft 491 kts 51°
2026-04-22 00:53 -19.63769 -42.58422 37082 ft 491 kts 51°
2026-04-22 00:54 -19.59301 -42.52948 37073 ft 491 kts 51°
2026-04-22 00:54 -19.54834 -42.47473 37078 ft 491 kts 51°
2026-04-22 00:55 -19.50369 -42.41999 37071 ft 491 kts 51°
2026-04-22 00:55 -19.43678 -42.33805 37078 ft 490 kts 50°
2026-04-22 00:56 -19.39219 -42.28350 37069 ft 489 kts 50°
2026-04-22 00:56 -19.34761 -42.22901 37068 ft 490 kts 50°
2026-04-22 00:57 -19.30293 -42.17446 37086 ft 489 kts 50°
2026-04-22 00:57 -19.25839 -42.12012 37073 ft 489 kts 50°
2026-04-22 00:58 -19.21378 -42.06573 37075 ft 489 kts 50°
2026-04-22 00:58 -19.16915 -42.01138 37072 ft 489 kts 50°
2026-04-22 00:59 -19.12448 -41.95713 37071 ft 488 kts 50°
2026-04-22 00:59 -19.07997 -41.90316 37075 ft 486 kts 50°
2026-04-22 01:00 -19.03547 -41.84918 37082 ft 488 kts 50°
2026-04-22 01:00 -18.99093 -41.79516 37072 ft 487 kts 50°
2026-04-22 01:01 -18.94671 -41.74158 37077 ft 487 kts 50°
2026-04-22 01:01 -18.90231 -41.68783 37073 ft 484 kts 50°
2026-04-22 01:02 -18.85807 -41.63430 37075 ft 482 kts 50°
2026-04-22 01:02 -18.81420 -41.58129 37079 ft 478 kts 50°
2026-04-22 01:03 -18.77046 -41.52848 37082 ft 478 kts 50°
2026-04-22 01:03 -18.72669 -41.47566 37073 ft 477 kts 50°
2026-04-22 01:04 -18.68297 -41.42297 37084 ft 477 kts 50°
2026-04-22 01:04 -18.63925 -41.37032 37098 ft 477 kts 50°
2026-04-22 01:05 -18.59549 -41.31766 37104 ft 477 kts 50°
2026-04-22 01:05 -18.55208 -41.26547 37091 ft 477 kts 50°
2026-04-22 01:06 -18.50864 -41.21329 37111 ft 471 kts 50°
2026-04-22 01:06 -18.46552 -41.16154 37101 ft 470 kts 50°
2026-04-22 01:07 -18.42232 -41.10974 37097 ft 470 kts 50°
2026-04-22 01:07 -18.37928 -41.05815 37099 ft 463 kts 50°
2026-04-22 01:08 -18.33737 -41.00797 37104 ft 452 kts 50°
2026-04-22 01:08 -18.29584 -40.95828 37101 ft 452 kts 50°
2026-04-22 01:09 -18.25430 -40.90861 37111 ft 452 kts 50°
2026-04-22 01:09 -18.21276 -40.85901 37103 ft 452 kts 50°
2026-04-22 01:10 -18.17121 -40.80941 37097 ft 452 kts 50°
2026-04-22 01:10 -18.12994 -40.76018 37104 ft 451 kts 50°
2026-04-22 01:11 -18.08849 -40.71078 37102 ft 451 kts 50°
2026-04-22 01:11 -18.04698 -40.66134 37101 ft 451 kts 50°
2026-04-22 01:12 -18.00548 -40.61196 37102 ft 451 kts 50°
2026-04-22 01:12 -17.96395 -40.56258 37097 ft 451 kts 50°
2026-04-22 01:13 -17.92249 -40.51332 37093 ft 448 kts 50°
2026-04-22 01:13 -17.88153 -40.46469 37100 ft 443 kts 50°
2026-04-22 01:14 -17.84067 -40.41622 37099 ft 443 kts 50°
2026-04-22 01:14 -17.79978 -40.36774 37098 ft 444 kts 50°
2026-04-22 01:15 -17.75839 -40.31876 37096 ft 453 kts 50°
2026-04-22 01:15 -17.73723 -40.29373 36659 ft 463 kts 50°
2026-04-22 01:15 -17.71590 -40.26852 35770 ft 463 kts 50°
2026-04-22 01:16 -17.69453 -40.24327 34957 ft 460 kts 50°
2026-04-22 01:16 -17.67328 -40.21818 34164 ft 458 kts 50°
2026-04-22 01:16 -17.65221 -40.19331 33288 ft 456 kts 50°
2026-04-22 01:16 -17.63156 -40.16895 32524 ft 451 kts 50°
2026-04-22 01:17 -17.61085 -40.14451 31939 ft 442 kts 50°
2026-04-22 01:17 -17.59090 -40.12098 31850 ft 420 kts 50°
2026-04-22 01:17 -17.57201 -40.09871 31842 ft 399 kts 50°
2026-04-22 01:17 -17.55367 -40.07711 31383 ft 395 kts 50°
2026-04-22 01:18 -17.53538 -40.05555 30548 ft 399 kts 50°
2026-04-22 01:18 -17.51680 -40.03367 29579 ft 405 kts 50°
2026-04-22 01:18 -17.49797 -40.01150 28577 ft 409 kts 50°
2026-04-22 01:18 -17.47898 -39.98916 27599 ft 412 kts 50°
2026-04-22 01:19 -17.45990 -39.96670 26656 ft 414 kts 50°
2026-04-22 01:19 -17.44075 -39.94419 25757 ft 414 kts 50°
2026-04-22 01:19 -17.42286 -39.92064 24965 ft 408 kts 62°
2026-04-22 01:19 -17.41526 -39.90299 24648 ft 397 kts 75°
2026-04-22 01:20 -17.41180 -39.87509 24233 ft 380 kts 96°
2026-04-22 01:20 -17.42224 -39.84102 23663 ft 363 kts 124°
2026-04-22 01:20 -17.43309 -39.82797 23327 ft 357 kts 140°
2026-04-22 01:20 -17.45442 -39.81547 22828 ft 351 kts 162°
2026-04-22 01:21 -17.47832 -39.81294 22337 ft 346 kts 185°
2026-04-22 01:21 -17.50111 -39.82035 21837 ft 344 kts 208°
2026-04-22 01:21 -17.51926 -39.83623 21395 ft 340 kts 230°
2026-04-22 01:21 -17.53312 -39.85589 21048 ft 330 kts 233°
2026-04-22 01:22 -17.54597 -39.87555 20677 ft 324 kts 233°
2026-04-22 01:22 -17.55899 -39.89456 20326 ft 320 kts 231°
2026-04-22 01:22 -17.57240 -39.91310 20004 ft 320 kts 230°
2026-04-22 01:22 -17.58616 -39.93131 19762 ft 316 kts 229°
2026-04-22 01:23 -17.60000 -39.94908 19528 ft 314 kts 229°
2026-04-22 01:23 -17.61267 -39.96799 19273 ft 313 kts 245°
2026-04-22 01:23 -17.61784 -39.98957 19047 ft 312 kts 269°
2026-04-22 01:23 -17.61459 -40.01190 18809 ft 310 kts 292°
2026-04-22 01:24 -17.60355 -40.03102 18581 ft 306 kts 315°
2026-04-22 01:24 -17.58690 -40.04426 18280 ft 301 kts 336°
2026-04-22 01:24 -17.56692 -40.05032 17804 ft 300 kts 358°
2026-04-22 01:24 -17.54622 -40.04844 17348 ft 299 kts 18°
2026-04-22 01:25 -17.52763 -40.03918 16898 ft 298 kts 38°
2026-04-22 01:25 -17.51225 -40.02461 16486 ft 299 kts 46°
2026-04-22 01:25 -17.49780 -40.00923 16267 ft 293 kts 47°
2026-04-22 01:25 -17.48395 -39.99385 16069 ft 287 kts 48°
2026-04-22 01:26 -17.47065 -39.97870 15931 ft 279 kts 48°
2026-04-22 01:26 -17.45776 -39.96383 15799 ft 273 kts 49°
2026-04-22 01:26 -17.44513 -39.94915 15661 ft 270 kts 49°
2026-04-22 01:26 -17.43258 -39.93456 15518 ft 269 kts 46°
2026-04-22 01:27 -17.41770 -39.92292 15356 ft 268 kts 25°
2026-04-22 01:27 -17.40006 -39.91639 15235 ft 270 kts 17°
2026-04-22 01:27 -17.38247 -39.90982 15108 ft 268 kts 28°
2026-04-22 01:27 -17.36620 -39.90031 15106 ft 269 kts 30°
2026-04-22 01:28 -17.34974 -39.89091 15102 ft 269 kts 28°
2026-04-22 01:28 -17.33319 -39.88167 15101 ft 269 kts 28°
2026-04-22 01:28 -17.31662 -39.87253 15095 ft 269 kts 28°
2026-04-22 01:28 -17.30003 -39.86346 15092 ft 269 kts 28°
2026-04-22 01:29 -17.28340 -39.85440 15096 ft 269 kts 28°
2026-04-22 01:29 -17.26678 -39.84539 15092 ft 269 kts 28°
2026-04-22 01:29 -17.25012 -39.83636 15092 ft 269 kts 28°
2026-04-22 01:29 -17.23349 -39.82737 15092 ft 269 kts 28°
2026-04-22 01:30 -17.21685 -39.81836 15094 ft 269 kts 28°
2026-04-22 01:30 -17.20024 -39.80939 15095 ft 269 kts 28°
2026-04-22 01:30 -17.18358 -39.80038 15093 ft 269 kts 28°
2026-04-22 01:30 -17.16691 -39.79138 15097 ft 269 kts 28°
2026-04-22 01:31 -17.15054 -39.78254 15095 ft 269 kts 28°
2026-04-22 01:31 -17.13391 -39.77356 15095 ft 269 kts 28°
2026-04-22 01:31 -17.11728 -39.76458 15091 ft 269 kts 28°
2026-04-22 01:31 -17.10065 -39.75560 15098 ft 269 kts 28°
2026-04-22 01:32 -17.08444 -39.74532 15007 ft 271 kts 34°
2026-04-22 01:32 -17.06862 -39.73416 14612 ft 275 kts 34°
2026-04-22 01:32 -17.05274 -39.72310 14289 ft 276 kts 34°
2026-04-22 01:32 -17.03673 -39.71207 13995 ft 275 kts 33°
2026-04-22 01:33 -17.02093 -39.70123 13663 ft 275 kts 33°
2026-04-22 01:33 -17.00489 -39.69028 13306 ft 275 kts 33°
2026-04-22 01:33 -16.98887 -39.67935 12992 ft 274 kts 33°
2026-04-22 01:33 -16.97290 -39.66848 12681 ft 273 kts 33°
2026-04-22 01:34 -16.95705 -39.65769 12384 ft 271 kts 33°
2026-04-22 01:34 -16.94130 -39.64697 12093 ft 270 kts 33°
2026-04-22 01:34 -16.92564 -39.63632 11850 ft 267 kts 33°
2026-04-22 01:34 -16.91023 -39.62584 11645 ft 262 kts 33°
2026-04-22 01:35 -16.89500 -39.61549 11432 ft 260 kts 33°
2026-04-22 01:35 -16.87987 -39.60520 11190 ft 259 kts 33°
2026-04-22 01:35 -16.86482 -39.59498 10949 ft 258 kts 33°
2026-04-22 01:35 -16.84983 -39.58479 10715 ft 257 kts 33°
2026-04-22 01:36 -16.83495 -39.57468 10475 ft 256 kts 33°
2026-04-22 01:36 -16.81969 -39.56432 10252 ft 266 kts 33°
2026-04-22 01:36 -16.80401 -39.55367 10025 ft 271 kts 33°
2026-04-22 01:36 -16.78814 -39.54289 9712 ft 274 kts 33°
2026-04-22 01:37 -16.77189 -39.53185 9161 ft 284 kts 34°
2026-04-22 01:37 -16.75543 -39.52069 8912 ft 280 kts 34°
2026-04-22 01:37 -16.73903 -39.50956 8496 ft 283 kts 34°
2026-04-22 01:37 -16.72238 -39.49826 8057 ft 287 kts 34°
2026-04-22 01:38 -16.70548 -39.48680 7610 ft 291 kts 34°
2026-04-22 01:38 -16.68844 -39.47525 7213 ft 293 kts 34°
2026-04-22 01:38 -16.67143 -39.46371 6974 ft 289 kts 34°
2026-04-22 01:38 -16.65505 -39.45261 6858 ft 280 kts 34°
2026-04-22 01:39 -16.63868 -39.44152 6731 ft 274 kts 34°
2026-04-22 01:39 -16.62304 -39.43093 6614 ft 271 kts 35°
2026-04-22 01:39 -16.60723 -39.42022 6472 ft 270 kts 35°
2026-04-22 01:39 -16.59140 -39.40949 6021 ft 272 kts 35°
2026-04-22 01:40 -16.57555 -39.39876 5489 ft 271 kts 35°
2026-04-22 01:40 -16.55983 -39.38812 5044 ft 267 kts 36°
2026-04-22 01:40 -16.54434 -39.37763 4736 ft 265 kts 36°
2026-04-22 01:40 -16.52888 -39.36718 4417 ft 264 kts 36°
2026-04-22 01:41 -16.51519 -39.35485 4098 ft 258 kts 59°
2026-04-22 01:41 -16.50845 -39.33811 3903 ft 246 kts 76°
2026-04-22 01:41 -16.50378 -39.32172 3847 ft 227 kts 76°
2026-04-22 01:41 -16.49951 -39.30649 3720 ft 212 kts 76°
2026-04-22 01:42 -16.49551 -39.29203 3598 ft 203 kts 77°
2026-04-22 01:42 -16.49170 -39.27812 3450 ft 197 kts 77°
2026-04-22 01:42 -16.48803 -39.26458 3304 ft 192 kts 77°
2026-04-22 01:42 -16.48448 -39.25148 3186 ft 183 kts 77°
2026-04-22 01:43 -16.48109 -39.23890 2957 ft 179 kts 78°
2026-04-22 01:43 -16.47774 -39.22645 2689 ft 177 kts 78°
2026-04-22 01:43 -16.47445 -39.21427 2501 ft 172 kts 78°
2026-04-22 01:43 -16.47134 -39.20277 2358 ft 159 kts 78°
2026-04-22 01:44 -16.46853 -39.19232 2301 ft 145 kts 79°
2026-04-22 01:44 -16.46586 -39.18235 2172 ft 142 kts 79°
2026-04-22 01:44 -16.46320 -39.17252 1944 ft 140 kts 79°
2026-04-22 01:44 -16.46040 -39.16280 1782 ft 140 kts 77°
2026-04-22 01:45 -16.45742 -39.15311 1604 ft 140 kts 77°
2026-04-22 01:45 -16.45491 -39.14330 1370 ft 141 kts 79°
2026-04-22 01:45 -16.45239 -39.13351 1107 ft 140 kts 78°
2026-04-22 01:45 -16.44992 -39.12365 874 ft 141 kts 78°
2026-04-22 01:46 -16.44716 -39.11396 657 ft 137 kts 75°
2026-04-22 01:46 -16.44465 -39.10439 432 ft 138 kts 78°
2026-04-22 01:46 -16.44223 -39.09472 287 ft 139 kts 77°
2026-04-22 01:46 -16.43961 -39.08504 164 ft 132 kts 77°
2026-04-22 01:47 -16.43785 -39.07841 163 ft 44 kts 75°
2026-04-22 01:47 -16.43745 -39.07654 165 ft 6 kts 40°
2026-04-22 01:47 -16.43718 -39.07664 164 ft 6 kts 294°
2026-04-22 01:47 -16.43762 -39.07782 164 ft 32 kts 249°
2026-04-22 01:48 -16.43838 -39.08038 162 ft 40 kts 255°
2026-04-22 01:48 -16.43940 -39.08128 162 ft 19 kts 168°
2026-04-22 01:48 -16.44027 -39.08136 162 ft 6 kts 252°
2026-04-22 01:48 -16.44044 -39.08175 162 ft 6 kts 199°
2026-04-22 01:49 -16.44079 -39.08165 162 ft 3 kts 163°